Location: Unspecified
(51.0950°N, 12.9690°E)
Time: 21:48:34
(UTC+00:00)

Cosmos 1802 Rocket - Pass Details

Date: 28 October 2021
Orbit: 955 x 1010 km, 82.9° (Epoch: 01 December)

Event Time Altitude Azimuth Distance (km) Brightness Sun altitude
Rises 18:34:43 0° 189° (S) 3,621 7.0 -26.4°
Reaches altitude 10° 18:37:12 10° 190° (S) 2,679 6.3 -26.8°
Maximum altitude 18:43:20 85° 280° (W) 969 3.9 -27.7°
Drops below altitude 10° 18:49:33 10° 9° (N) 2,715 6.4 -28.7°
Sets 18:52:05 0° 10° (N) 3,672 7.1 -29.1°
